Weather Roundup
Issued by NWS Chicago, IL

Home | Current Version | Previous Version | Text Only | Print | Product List | Glossary Off
Versions: 1 2 3 4 5 6 7 8 9 10 11 12 13 14 15 16 17 18 19 20 21 22 23 24 25 26 27 28 29 30 31 32 33 34 35 36 37 38 39 40 41 42 43 44 45 46 47 48 49 50

000
NZUS59 KLOT 231904
HRRLOT

CHICAGO AREA WEATHER ROUNDUP
NATIONAL WEATHER SERVICE CHICAGO/ROMEOVILLE IL
200 PM CDT SUN JUL 23 2017

NOTE: "FAIR" INDICATES FEW OR NO CLOUDS BELOW 12,000 FEET WITH NO
SIGNIFICANT WEATHER AND/OR OBSTRUCTIONS TO VISIBILITY.

* THESE STATIONS ARE NOT UNDER NWS QUALITY CONTROL. THEY ALSO MAY NOT
  REPORT WEATHER SUCH AS PRECIPITATION OR FOG.

ILZ005-006-012>014-019>023-232000-
NORTHEAST ILLINOIS

CITY           SKY/WX    TMP DP  RH WIND       PRES   REMARKS
OHARE          MOSUNNY   89  62  40 W9        29.78F HX  89
MIDWAY         MOSUNNY   90  61  37 NW9       29.78F HX  90
AURORA         SUNNY     86  70  58 W12       29.82F HX  90
LANSING*       MOSUNNY   88  61  39 W9        29.78F HX  88
JOLIET*        SUNNY     89  69  51 W9        29.81F HX  93
WAUKEGAN       CLOUDY    86  63  45 VRB5      29.77F HX  87
DUPAGE AIRPORT SUNNY     86  65  49 W12       29.80F HX  88
WHEELING       MOSUNNY   87  62  43 W9        29.79F HX  87
MORRIS*        MOSUNNY   86  69  56 W12       29.80F HX  90
NORTHERLY ISL    N/A     82  73  74 CALM        N/A  HX  87
$$

WIZ051-052-058>065-066-070>072-232000-
SOUTHEAST WISCONSIN

CITY           SKY/WX    TMP DP  RH WIND       PRES   REMARKS
MILWAUKEE      PTSUNNY   83  63  50 NW12      29.79R HX  84
KENOSHA*       CLOUDY    83  61  47 W6        29.79S HX  83
RACINE*        CLOUDY    82  66  58 N5        29.80S HX  84
WAUKESHA       PTSUNNY   75  63  64 NW9       29.82R
$$

INZ001>003-010>013-019-020-232000-
NORTHWEST INDIANA

CITY           SKY/WX    TMP DP  RH WIND       PRES   REMARKS
GARY*          MOSUNNY   88  68  51 VRB5      29.79F HX  91
MICHIGAN CITY* NOT AVBL
RENSSELAER*    NOT AVBL
VALPARAISO     CLOUDY    89  66  46 NW9G17    29.79F HX  91
$$

LMZ740>746-232000-
SOUTHERN LAKE MICHIGAN

STATION/POSITION TIME  SKY/WX   TEMP WIND        PRES    VSBY
                                AIR  DIR/SP/G
                 (UTC)          (F)  (DEG/KT/KT) (MB)    (MI)
HARRISON CRIB    1840            80   60/  5/  5   N/A
BURNHAM HARBOR   1900            81                N/A
CALUMET HARBOR   1830            81   50/  5/  6 1008.4F
BURNS HARBOR     1840            79  350/  3/  4 1009.1F
MICHIGAN CITY    1840            81  290/  5/  6   N/A
$$

ABBREVIATIONS USED IN REMARKS
   TC - TEMPERATURE IN CELSIUS
  WCI - WIND CHILL INDEX
   HX - HEAT INDEX
  VSB - VISIBILITY
$$



USA.gov is the U.S. government's official web portal to all federal, state and local government web resources and services.